Weather History for West Vancouver, BC

Change the Weather History Date:

Sunday, January 20, 2013

  Actual Average Record
Temperature  
Mean Temperature 34 °F -  
Max Temperature 37 °F - - ()
Min Temperature 30 °F - - ()
Degree Days  
Heating Degree Days 32    
Moisture  
Dew Point 32 °F    
Average Humidity 95    
Maximum Humidity 100    
Minimum Humidity 87    
Precipitation  
Precipitation 0.09 in - - ()
Sea Level Pressure  
Sea Level Pressure 30.35 in    
Wind  
Wind Speed 0 mph ()    
Max Wind Speed 0 mph    
Max Gust Speed -    
T = Trace of Precipitation, MM = Missing Value Source: Averaged Metar Reports

Daily Weather History Graph

Daily Weather History Graph

Search for Another Location

Airport:

Trip Planner

Search our weather history database for the weather conditions in past years. The results will help you decide how hot, cold, wet, or windy it might be!

Date:

Astronomy

Jan. 20, 2013 Rise Set
Actual Time 7:58 AM PST 4:50 PM PST
Civil Twilight 7:22 AM PST 5:25 PM PST
Nautical Twilight 6:43 AM PST 6:05 PM PST
Astronomical Twilight 6:05 AM PST 6:43 PM PST
Moon 11:56 AM PST 2:33 AM PST
Length of Visible Light 10h 03m
Length of Day
8h 52m
Waxing Gibbous, 67% of the Moon is Illuminated
Jan 20
Waxing Gibbous
Jan 26
Full
Feb 3
Last Quarter
Feb 9
New
Feb 17
First Quarter

Hourly Weather History & Observations

Time (PST) Temp. Dew Point Humidity Pressure Visibility Wind Dir Wind Speed Gust Speed Precip Events Conditions
12:00 AM 35.2 °F 31.6 °F 87% 30.38 in - Calm Calm - N/A   Unknown
1:00 AM 34.2 °F 31.3 °F 89% 30.39 in - Calm Calm - N/A   Unknown
2:00 AM 33.6 °F 30.7 °F 89% 30.40 in - Calm Calm - N/A   Unknown
3:00 AM 33.4 °F 30.9 °F 90% 30.40 in - Calm Calm - N/A   Unknown
4:00 AM 33 °F 31 °F 91% 30.39 in - Calm Calm - -  
4:00 AM 31.3 °F 31.3 °F 100% 30.39 in - Calm Calm - N/A   Unknown
5:00 AM 31.6 °F 30.4 °F 95% 30.39 in - Calm Calm - N/A   Unknown
6:00 AM 31.1 °F 29.7 °F 94% 30.38 in - Calm Calm - N/A   Unknown
7:00 AM 31.3 °F 30.2 °F 96% 30.38 in - Calm Calm - N/A   Unknown
8:00 AM 31.6 °F 31.3 °F 99% 30.38 in - Calm Calm - N/A   Unknown
9:00 AM 31.8 °F 31.3 °F 98% 30.39 in - Calm Calm - N/A   Unknown
10:00 AM 34 °F 33 °F 95% 30.39 in - Calm Calm - -  
10:00 AM 34.0 °F 33.1 °F 96% 30.39 in - Calm Calm - N/A   Unknown
11:00 AM 34.9 °F 33.8 °F 96% 30.39 in - Calm Calm - N/A   Unknown
12:00 PM 36.0 °F 34.9 °F 96% 30.38 in - Calm Calm - N/A   Unknown
1:00 PM 36.7 °F 35.6 °F 96% 30.35 in - Calm Calm - N/A   Unknown
2:00 PM 36.3 °F 35.2 °F 96% 30.33 in - Calm Calm - N/A   Unknown
3:00 PM 35.6 °F 34.5 °F 96% 30.33 in - Calm Calm - N/A   Unknown
4:00 PM 36 °F 35 °F 93% 30.32 in - Calm Calm - -  
4:00 PM 35.6 °F 34.7 °F 97% 30.32 in - Calm Calm - N/A   Unknown
5:00 PM - - N/A% - - North - - N/A   Unknown
6:00 PM 34.5 °F 33.6 °F 97% 30.30 in - Calm Calm - N/A   Unknown
7:00 PM 34.2 °F 33.3 °F 97% 30.29 in - Calm Calm - N/A   Unknown
8:00 PM 33.4 °F 31.8 °F 94% 30.29 in - Calm Calm - N/A   Unknown
9:00 PM 33.4 °F 32.0 °F 94% 30.29 in - Calm Calm - N/A   Unknown
10:00 PM 32.9 °F 31.3 °F 94% 30.29 in - Calm Calm - N/A   Unknown
11:00 PM 31.8 °F 30.6 °F 95% 30.29 in - Calm Calm - N/A   Unknown